Time,TemperatureF,DewpointF,PressureIn,WindDirection,WindDirectionDegrees,WindSpeedMPH,WindSpeedGustMPH,Humidity,HourlyPrecipIn,Conditions,Clouds,dailyrainin,SoftwareType,DateUTC
2015-01-29 00:00:00,8.9,3.2,30.51,WSW,243,0.0,28.0,77,0.00,,,0.00,Wunderground v.1.15,2015-01-29 03:00:00,
2015-01-29 00:05:00,9.0,3.5,30.50,WSW,243,1.0,28.0,78,0.00,,,0.00,Wunderground v.1.15,2015-01-29 03:05:00,
2015-01-29 00:15:00,9.0,3.8,30.51,WSW,243,1.0,2.0,79,0.00,,,0.00,Wunderground v.1.15,2015-01-29 03:15:00,
2015-01-29 00:20:00,9.2,4.3,30.51,WSW,242,2.0,28.0,80,0.00,,,0.00,Wunderground v.1.15,2015-01-29 03:20:00,
2015-01-29 00:30:00,9.9,5.0,30.51,WSW,237,3.0,28.0,80,0.00,,,0.00,Wunderground v.1.15,2015-01-29 03:30:00,
2015-01-29 00:38:00,9.7,5.0,30.52,WSW,237,0.0,4.0,80,0.00,,,0.00,weatherlink.com 1.10,2015-01-29 03:38:00,
2015-01-29 00:45:00,9.7,4.8,30.51,SW,236,2.0,28.0,80,0.00,,,0.00,Wunderground v.1.15,2015-01-29 03:45:00,
2015-01-29 00:53:00,10.0,5.0,30.52,SW,235,4.0,6.0,80,0.00,,,0.00,weatherlink.com 1.10,2015-01-29 03:53:00,
2015-01-29 01:00:00,10.1,4.9,30.51,SW,227,4.0,28.0,79,0.00,,,0.00,Wunderground v.1.15,2015-01-29 04:00:00,
2015-01-29 01:05:00,10.4,5.2,30.51,SW,224,4.0,28.0,79,0.00,,,0.00,Wunderground v.1.15,2015-01-29 04:05:00,
2015-01-29 01:10:00,10.6,5.4,30.51,SW,217,4.0,28.0,79,0.00,,,0.00,Wunderground v.1.15,2015-01-29 04:10:00,
2015-01-29 01:20:00,11.3,5.8,30.51,SW,222,4.0,28.0,78,0.00,,,0.00,Wunderground v.1.15,2015-01-29 04:20:00,
2015-01-29 01:25:00,11.7,6.2,30.50,SW,228,5.0,28.0,78,0.00,,,0.00,Wunderground v.1.15,2015-01-29 04:25:00,
2015-01-29 01:35:00,11.9,5.8,30.51,SW,226,4.0,28.0,76,0.00,,,0.00,Wunderground v.1.15,2015-01-29 04:35:00,
2015-01-29 01:45:00,11.3,4.9,30.51,SW,223,5.0,28.0,75,0.00,,,0.00,Wunderground v.1.15,2015-01-29 04:45:00,
2015-01-29 01:50:00,11.2,4.8,30.51,SW,218,5.0,5.0,75,0.00,,,0.00,Wunderground v.1.15,2015-01-29 04:50:00,
2015-01-29 02:00:00,11.0,4.6,30.50,SW,225,5.0,28.0,75,0.00,,,0.00,Wunderground v.1.15,2015-01-29 05:00:00,
2015-01-29 02:08:00,10.9,5.0,30.50,SW,221,5.0,7.0,76,0.00,,,0.00,weatherlink.com 1.10,2015-01-29 05:08:00,
2015-01-29 02:15:00,11.0,4.9,30.50,SW,224,6.0,28.0,76,0.00,,,0.00,Wunderground v.1.15,2015-01-29 05:15:00,
2015-01-29 02:20:00,10.9,4.5,30.50,SW,227,5.0,5.0,75,0.00,,,0.00,Wunderground v.1.15,2015-01-29 05:20:00,
2015-01-29 02:30:00,10.4,4.0,30.50,SW,224,5.0,28.0,75,0.00,,,0.00,Wunderground v.1.15,2015-01-29 05:30:00,
2015-01-29 02:38:00,10.2,4.0,30.50,SW,235,7.0,8.0,75,0.00,,,0.00,weatherlink.com 1.10,2015-01-29 05:38:00,
2015-01-29 02:45:00,10.0,3.7,30.50,SW,233,6.0,28.0,75,0.00,,,0.00,Wunderground v.1.15,2015-01-29 05:45:00,
2015-01-29 02:50:00,9.8,3.5,30.50,SW,233,6.0,28.0,75,0.00,,,0.00,Wunderground v.1.15,2015-01-29 05:50:00,
2015-01-29 02:55:00,9.6,3.3,30.50,WSW,237,6.0,28.0,75,0.00,,,0.00,Wunderground v.1.15,2015-01-29 05:55:00,
2015-01-29 03:00:00,9.4,3.4,30.50,SW,235,5.0,28.0,76,0.00,,,0.00,Wunderground v.1.15,2015-01-29 06:00:00,
2015-01-29 03:09:00,9.1,3.0,30.50,WSW,243,6.0,7.0,76,0.00,,,0.00,weatherlink.com 1.10,2015-01-29 06:09:00,
2015-01-29 03:15:00,9.2,3.4,30.50,WSW,237,5.0,28.0,77,0.00,,,0.00,Wunderground v.1.15,2015-01-29 06:15:00,
2015-01-29 03:24:00,9.3,4.0,30.50,SW,224,5.0,7.0,77,0.00,,,0.00,weatherlink.com 1.10,2015-01-29 06:24:00,
2015-01-29 03:30:00,9.6,4.1,30.49,SW,224,5.0,28.0,78,0.00,,,0.00,Wunderground v.1.15,2015-01-29 06:30:00,
2015-01-29 03:39:00,10.0,4.0,30.49,SW,227,4.0,7.0,78,0.00,,,0.00,weatherlink.com 1.10,2015-01-29 06:39:00,
2015-01-29 03:45:00,10.2,5.0,30.49,SW,231,5.0,28.0,79,0.00,,,0.00,Wunderground v.1.15,2015-01-29 06:45:00,
2015-01-29 03:50:00,10.4,5.2,30.49,SW,233,5.0,28.0,79,0.00,,,0.00,Wunderground v.1.15,2015-01-29 06:50:00,
2015-01-29 03:55:00,10.5,5.3,30.49,SW,231,5.0,28.0,79,0.00,,,0.00,Wunderground v.1.15,2015-01-29 06:55:00,
2015-01-29 04:05:00,10.8,5.6,30.49,SW,229,4.0,28.0,79,0.00,,,0.00,Wunderground v.1.15,2015-01-29 07:05:00,
2015-01-29 04:10:00,10.9,5.7,30.49,SW,229,5.0,28.0,79,0.00,,,0.00,Wunderground v.1.15,2015-01-29 07:10:00,
2015-01-29 04:20:00,10.9,5.7,30.50,SW,231,4.0,28.0,79,0.00,,,0.00,Wunderground v.1.15,2015-01-29 07:20:00,
2015-01-29 04:25:00,11.3,6.1,30.49,SW,229,5.0,28.0,79,0.00,,,0.00,Wunderground v.1.15,2015-01-29 07:25:00,
2015-01-29 04:35:00,11.3,6.1,30.49,SW,229,6.0,28.0,79,0.00,,,0.00,Wunderground v.1.15,2015-01-29 07:35:00,
2015-01-29 04:40:00,11.2,6.0,30.49,SW,229,6.0,28.0,79,0.00,,,0.00,Wunderground v.1.15,2015-01-29 07:40:00,
2015-01-29 04:50:00,11.3,6.1,30.49,SW,222,5.0,5.0,79,0.00,,,0.00,Wunderground v.1.15,2015-01-29 07:50:00,
2015-01-29 04:55:00,11.3,6.3,30.48,SW,225,5.0,28.0,80,0.00,,,0.00,Wunderground v.1.15,2015-01-29 07:55:00,
2015-01-29 05:00:00,11.4,6.4,30.49,SW,227,5.0,5.0,80,0.00,,,0.00,Wunderground v.1.15,2015-01-29 08:00:00,
2015-01-29 05:09:00,11.8,7.0,30.48,SW,225,7.0,9.0,81,0.00,,,0.00,weatherlink.com 1.10,2015-01-29 08:09:00,
2015-01-29 05:15:00,11.8,7.1,30.48,SW,225,7.0,28.0,81,0.00,,,0.00,Wunderground v.1.15,2015-01-29 08:15:00,
2015-01-29 05:25:00,12.6,7.3,30.48,SW,226,6.0,28.0,79,0.00,,,0.00,Wunderground v.1.15,2015-01-29 08:25:00,
2015-01-29 05:30:00,12.5,7.2,30.48,SW,219,6.0,28.0,79,0.00,,,0.00,Wunderground v.1.15,2015-01-29 08:30:00,
2015-01-29 05:35:00,12.5,7.2,30.48,SW,219,7.0,28.0,79,0.00,,,0.00,Wunderground v.1.15,2015-01-29 08:35:00,
2015-01-29 05:45:00,12.4,7.1,30.47,SW,220,5.0,28.0,79,0.00,,,0.00,Wunderground v.1.15,2015-01-29 08:45:00,
2015-01-29 05:55:00,12.1,7.0,30.47,SW,227,5.0,8.0,80,0.00,,,0.00,weatherlink.com 1.10,2015-01-29 08:55:00,
2015-01-29 06:00:00,12.1,7.1,30.47,SW,227,5.0,5.0,80,0.00,,,0.00,Wunderground v.1.15,2015-01-29 09:00:00,
2015-01-29 06:10:00,12.1,7.0,30.47,SW,227,5.0,7.0,80,0.00,,,0.00,weatherlink.com 1.10,2015-01-29 09:10:00,
2015-01-29 06:15:00,12.1,7.1,30.47,SW,226,5.0,28.0,80,0.00,,,0.00,Wunderground v.1.15,2015-01-29 09:15:00,
2015-01-29 06:25:00,11.9,7.0,30.46,WSW,237,7.0,7.0,81,0.00,,,0.00,weatherlink.com 1.10,2015-01-29 09:25:00,
2015-01-29 06:35:00,11.9,7.2,30.46,SW,227,7.0,28.0,81,0.00,,,0.00,Wunderground v.1.15,2015-01-29 09:35:00,
2015-01-29 06:40:00,-999.9,-99.9,30.46,North,32767,-999.0,28.0,255,-99.99,,,0.00,Wunderground v.1.15,2015-01-29 09:40:00,
2015-01-29 06:45:00,-999.9,-99.9,30.46,North,32767,-999.0,28.0,255,-99.99,,,0.00,Wunderground v.1.15,2015-01-29 09:45:00,
2015-01-29 06:50:00,-999.9,-99.9,30.46,North,32767,-999.0,28.0,255,-99.99,,,0.00,Wunderground v.1.15,2015-01-29 09:50:00,
2015-01-29 06:56:00,-999.0,-99.9,30.46,North,-999,-999.0,-999.0,-999,0.00,,,0.00,weatherlink.com 1.10,2015-01-29 09:56:00,
2015-01-29 07:05:00,-999.9,-99.9,30.45,North,32767,-999.0,28.0,255,-99.99,,,0.00,Wunderground v.1.15,2015-01-29 10:05:00,
2015-01-29 07:10:00,-999.0,-99.9,30.45,North,-999,-999.0,-999.0,-999,0.00,,,0.00,weatherlink.com 1.10,2015-01-29 10:10:00,
2015-01-29 07:15:00,-999.9,-99.9,30.45,North,32767,-999.0,28.0,255,-99.99,,,0.00,Wunderground v.1.15,2015-01-29 10:15:00,
2015-01-29 07:25:00,-999.9,-99.9,30.45,North,32767,-999.0,28.0,255,-99.99,,,0.00,Wunderground v.1.15,2015-01-29 10:25:00,
2015-01-29 07:30:00,-999.9,-99.9,30.45,North,32767,-999.0,28.0,255,-99.99,,,0.00,Wunderground v.1.15,2015-01-29 10:30:00,
2015-01-29 07:40:00,-999.0,-99.9,30.45,North,-999,-999.0,-999.0,-999,0.00,,,0.00,weatherlink.com 1.10,2015-01-29 10:40:00,
2015-01-29 07:50:00,12.7,8.2,30.44,SW,235,0.0,28.0,82,0.00,,,0.00,Wunderground v.1.15,2015-01-29 10:50:00,
2015-01-29 07:55:00,12.7,8.2,30.44,SW,235,0.0,28.0,82,0.00,,,0.00,Wunderground v.1.15,2015-01-29 10:55:00,
2015-01-29 08:00:00,12.9,8.4,30.43,SSW,212,0.0,28.0,82,0.00,,,0.00,Wunderground v.1.15,2015-01-29 11:00:00,
2015-01-29 08:05:00,12.7,8.2,30.43,SSW,212,0.0,28.0,82,0.00,,,0.00,Wunderground v.1.15,2015-01-29 11:05:00,
2015-01-29 08:11:00,12.5,8.0,30.43,SW,224,1.0,5.0,82,0.00,,,0.00,weatherlink.com 1.10,2015-01-29 11:11:00,
2015-01-29 08:20:00,12.5,8.0,30.44,WSW,241,3.0,28.0,82,0.00,,,0.00,Wunderground v.1.15,2015-01-29 11:20:00,
2015-01-29 08:26:00,12.5,8.0,30.43,SW,229,5.0,8.0,82,0.00,,,0.00,weatherlink.com 1.10,2015-01-29 11:26:00,
2015-01-29 08:35:00,12.8,8.6,30.43,SW,222,6.0,28.0,83,0.00,,,0.00,Wunderground v.1.15,2015-01-29 11:35:00,
2015-01-29 08:41:00,13.0,9.0,30.43,WSW,241,7.0,8.0,83,0.00,,,0.00,weatherlink.com 1.10,2015-01-29 11:41:00,
2015-01-29 08:50:00,12.8,8.3,30.43,WSW,238,4.0,4.0,82,0.00,,,0.00,Wunderground v.1.15,2015-01-29 11:50:00,
2015-01-29 08:55:00,12.8,8.3,30.43,WSW,240,3.0,4.0,82,0.00,,,0.00,Wunderground v.1.15,2015-01-29 11:55:00,
2015-01-29 09:05:00,12.7,8.2,30.42,SW,224,1.0,4.0,82,0.00,,,0.00,Wunderground v.1.15,2015-01-29 12:05:00,
2015-01-29 09:11:00,12.6,8.0,30.42,SW,234,4.0,5.0,82,0.00,,,0.00,weatherlink.com 1.10,2015-01-29 12:11:00,
2015-01-29 09:20:00,12.8,8.6,30.41,SW,235,1.0,1.0,83,0.00,,,0.00,Wunderground v.1.15,2015-01-29 12:20:00,
2015-01-29 09:25:00,13.0,9.1,30.41,SW,233,1.0,4.0,84,0.00,,,0.00,Wunderground v.1.15,2015-01-29 12:25:00,
2015-01-29 09:35:00,13.1,9.2,30.41,SW,233,0.0,4.0,84,0.00,,,0.00,Wunderground v.1.15,2015-01-29 12:35:00,
2015-01-29 09:41:00,13.1,9.0,30.41,SW,233,2.0,3.0,84,0.00,,,0.00,weatherlink.com 1.10,2015-01-29 12:41:00,
2015-01-29 09:50:00,13.3,9.6,30.41,SW,233,0.0,4.0,85,0.00,,,0.00,Wunderground v.1.15,2015-01-29 12:50:00,
2015-01-29 09:56:00,13.2,9.0,30.40,SW,233,0.0,1.0,84,0.00,,,0.00,weatherlink.com 1.10,2015-01-29 12:56:00,
2015-01-29 10:05:00,13.9,10.2,30.40,SW,233,0.0,4.0,85,0.00,,,0.00,Wunderground v.1.15,2015-01-29 13:05:00,
2015-01-29 10:11:00,14.0,10.0,30.39,SW,233,0.0,1.0,84,0.00,,,0.00,weatherlink.com 1.10,2015-01-29 13:11:00,
2015-01-29 10:26:00,14.3,10.0,30.39,SW,233,0.0,0.0,83,0.00,,,0.00,weatherlink.com 1.10,2015-01-29 13:26:00,
2015-01-29 10:35:00,14.8,10.6,30.38,SW,232,0.0,4.0,83,0.00,,,0.00,Wunderground v.1.15,2015-01-29 13:35:00,
2015-01-29 10:40:00,15.2,11.0,30.38,SW,231,0.0,4.0,83,0.00,,,0.00,Wunderground v.1.15,2015-01-29 13:40:00,
2015-01-29 10:45:00,15.5,11.3,30.38,SW,231,1.0,4.0,83,0.00,,,0.00,Wunderground v.1.15,2015-01-29 13:45:00,
2015-01-29 10:55:00,16.3,11.8,30.37,SW,231,0.0,4.0,82,0.00,,,0.00,Wunderground v.1.15,2015-01-29 13:55:00,
2015-01-29 11:00:00,16.8,12.3,30.37,SW,231,0.0,4.0,82,0.00,,,0.00,Wunderground v.1.15,2015-01-29 14:00:00,
2015-01-29 11:10:00,17.3,12.2,30.36,SSW,210,0.0,4.0,80,0.00,,,0.00,Wunderground v.1.15,2015-01-29 14:10:00,
2015-01-29 11:20:00,17.8,12.4,30.35,South,179,1.0,1.0,79,0.00,,,0.00,Wunderground v.1.15,2015-01-29 14:20:00,
2015-01-29 11:25:00,18.0,12.3,30.34,South,179,0.0,4.0,78,0.00,,,0.00,Wunderground v.1.15,2015-01-29 14:25:00,
2015-01-29 11:30:00,18.3,12.6,30.34,South,173,1.0,4.0,78,0.00,,,0.00,Wunderground v.1.15,2015-01-29 14:30:00,
2015-01-29 11:40:00,18.6,12.6,30.33,SE,134,2.0,4.0,77,0.00,,,0.00,Wunderground v.1.15,2015-01-29 14:40:00,
2015-01-29 11:50:00,19.0,13.0,30.33,SE,133,2.0,2.0,77,0.00,,,0.00,Wunderground v.1.15,2015-01-29 14:50:00,
2015-01-29 11:55:00,19.3,13.0,30.32,SE,134,1.0,4.0,76,0.00,,,0.00,Wunderground v.1.15,2015-01-29 14:55:00,
2015-01-29 12:05:00,20.0,13.3,30.32,SE,134,1.0,4.0,75,0.00,,,0.00,Wunderground v.1.15,2015-01-29 15:05:00,
2015-01-29 12:10:00,20.3,13.6,30.31,SE,134,0.0,4.0,75,0.00,,,0.00,Wunderground v.1.15,2015-01-29 15:10:00,
2015-01-29 12:20:00,20.6,13.0,30.30,SE,134,2.0,2.0,72,0.00,,,0.00,Wunderground v.1.15,2015-01-29 15:20:00,
2015-01-29 12:27:00,20.6,13.0,30.29,SE,127,0.0,4.0,71,0.00,,,0.00,weatherlink.com 1.10,2015-01-29 15:27:00,
2015-01-29 12:35:00,21.0,13.1,30.28,ESE,121,1.0,4.0,71,0.00,,,0.00,Wunderground v.1.15,2015-01-29 15:35:00,
2015-01-29 12:42:00,21.5,13.0,30.27,ESE,122,2.0,7.0,69,0.00,,,0.00,weatherlink.com 1.10,2015-01-29 15:42:00,
2015-01-29 12:50:00,22.0,12.7,30.27,SE,124,2.0,2.0,67,0.00,,,0.00,Wunderground v.1.15,2015-01-29 15:50:00,
2015-01-29 12:57:00,22.2,12.0,30.26,SE,125,3.0,4.0,65,0.00,,,0.00,weatherlink.com 1.10,2015-01-29 15:57:00,
2015-01-29 13:05:00,22.6,12.2,30.25,SE,125,2.0,4.0,64,0.00,,,0.00,Wunderground v.1.15,2015-01-29 16:05:00,
2015-01-29 13:10:00,22.9,12.2,30.25,SE,125,2.0,4.0,63,0.00,,,0.00,Wunderground v.1.15,2015-01-29 16:10:00,
2015-01-29 13:15:00,23.2,12.1,30.25,SE,125,2.0,4.0,62,0.00,,,0.00,Wunderground v.1.15,2015-01-29 16:15:00,
2015-01-29 13:20:00,23.4,11.9,30.24,ESE,120,2.0,4.0,61,0.00,,,0.00,Wunderground v.1.15,2015-01-29 16:20:00,
2015-01-29 13:28:00,23.6,11.0,30.24,ESE,121,0.0,4.0,60,0.00,,,0.00,weatherlink.com 1.10,2015-01-29 16:28:00,
2015-01-29 13:35:00,23.7,11.1,30.23,ESE,121,1.0,4.0,58,0.00,,,0.00,Wunderground v.1.15,2015-01-29 16:35:00,
2015-01-29 13:40:00,23.8,11.5,30.23,ESE,121,1.0,4.0,59,0.00,,,0.00,Wunderground v.1.15,2015-01-29 16:40:00,
2015-01-29 13:50:00,22.6,10.8,30.22,East,90,0.0,4.0,60,0.00,,,0.00,Wunderground v.1.15,2015-01-29 16:50:00,
2015-01-29 13:55:00,22.9,11.8,30.21,East,98,1.0,4.0,62,0.00,,,0.00,Wunderground v.1.15,2015-01-29 16:55:00,
2015-01-29 14:00:00,22.8,11.7,30.21,ESE,108,1.0,4.0,62,0.00,,,0.00,Wunderground v.1.15,2015-01-29 17:00:00,
2015-01-29 14:10:00,22.5,11.8,30.20,ESE,109,2.0,2.0,63,0.00,,,0.00,Wunderground v.1.15,2015-01-29 17:10:00,
2015-01-29 14:20:00,22.2,11.5,30.19,ESE,109,0.0,4.0,63,0.00,,,0.00,Wunderground v.1.15,2015-01-29 17:20:00,
2015-01-29 14:25:00,22.2,11.9,30.19,East,93,1.0,4.0,64,0.00,,,0.00,Wunderground v.1.15,2015-01-29 17:25:00,
2015-01-29 14:35:00,23.1,13.4,30.17,East,99,1.0,4.0,66,0.00,,,0.00,Wunderground v.1.15,2015-01-29 17:35:00,
2015-01-29 14:40:00,23.6,13.5,30.17,ESE,104,1.0,4.0,65,0.00,,,0.00,Wunderground v.1.15,2015-01-29 17:40:00,
2015-01-29 14:50:00,25.5,13.9,30.15,SW,220,2.0,5.0,61,0.00,,,0.00,Wunderground v.1.15,2015-01-29 17:50:00,
2015-01-29 14:55:00,26.6,14.6,30.14,SSW,193,4.0,5.0,60,0.00,,,0.00,Wunderground v.1.15,2015-01-29 17:55:00,
2015-01-29 15:05:00,29.2,18.5,30.12,SSW,199,8.0,10.0,64,0.00,,,0.00,Wunderground v.1.15,2015-01-29 18:05:00,
2015-01-29 15:15:00,29.9,21.0,30.10,SSW,200,8.0,16.0,69,0.00,,,0.00,Wunderground v.1.15,2015-01-29 18:15:00,
2015-01-29 15:20:00,30.0,22.1,30.08,SSW,197,11.0,14.0,72,0.00,,,0.00,Wunderground v.1.15,2015-01-29 18:20:00,
2015-01-29 15:25:00,30.2,23.2,30.08,SSW,197,12.0,14.0,75,0.00,,,0.00,Wunderground v.1.15,2015-01-29 18:25:00,
2015-01-29 15:35:00,30.9,24.8,30.09,SW,224,11.0,14.0,78,0.00,,,0.00,Wunderground v.1.15,2015-01-29 18:35:00,
2015-01-29 15:44:00,31.3,26.0,30.09,WSW,237,15.0,20.0,80,0.00,,,0.00,weatherlink.com 1.10,2015-01-29 18:44:00,
2015-01-29 15:50:00,31.4,25.9,30.09,South,190,9.0,9.0,80,0.00,,,0.00,Wunderground v.1.15,2015-01-29 18:50:00,
2015-01-29 15:55:00,31.5,26.0,30.08,SSW,195,7.0,9.0,80,0.00,,,0.00,Wunderground v.1.15,2015-01-29 18:55:00,
2015-01-29 16:00:00,31.5,26.0,30.06,SSW,197,10.0,10.0,80,0.00,,,0.00,Wunderground v.1.15,2015-01-29 19:00:00,
2015-01-29 16:10:00,31.4,26.2,30.05,South,186,12.0,14.0,81,0.00,,,0.00,Wunderground v.1.15,2015-01-29 19:10:00,
2015-01-29 16:15:00,31.5,26.3,30.05,South,177,10.0,14.0,81,0.00,,,0.00,Wunderground v.1.15,2015-01-29 19:15:00,
2015-01-29 16:25:00,31.8,26.3,30.04,SSW,202,9.0,15.0,80,0.00,,,0.00,Wunderground v.1.15,2015-01-29 19:25:00,
2015-01-29 16:35:00,32.1,25.7,30.03,SSW,199,9.0,10.0,77,0.00,,,0.00,Wunderground v.1.15,2015-01-29 19:35:00,
2015-01-29 16:40:00,32.3,25.3,30.03,SSE,161,8.0,8.0,75,0.00,,,0.00,Wunderground v.1.15,2015-01-29 19:40:00,